EST,Max TemperatureF,Mean TemperatureF,Min TemperatureF,Max Dew PointF,MeanDew PointF,Min DewpointF,Max Humidity, Mean Humidity, Min Humidity, Max Sea Level PressureIn, Mean Sea Level PressureIn, Min Sea Level PressureIn, Max VisibilityMiles, Mean VisibilityMiles, Min VisibilityMiles, Max Wind SpeedMPH, Mean Wind SpeedMPH, Max Gust SpeedMPH,PrecipitationIn, CloudCover, Events, WindDirDegrees
2012-1-1,73,68,62,63,61,57,94,83,57,30.28,30.21,30.16,10,7,2,8,2,,0.00,0,,234
2012-1-2,66,60,55,66,52,38,97,73,49,30.24,30.17,30.10,10,10,6,18,8,25,0.01,2,Rain,326
2012-1-3,59,52,44,40,33,27,61,53,42,30.40,30.33,30.21,10,10,10,23,15,31,0.00,1,,357
2012-1-4,55,48,42,33,27,17,58,48,23,30.46,30.39,30.32,10,10,10,15,10,,0.00,0,,45
2012-1-5,64,55,46,55,48,37,90,76,60,30.34,30.26,30.21,10,10,10,8,4,,0.00,1,,291
2012-1-6,66,60,55,59,56,54,97,86,66,30.25,30.18,30.14,10,9,2,8,3,,0.00,1,,218
2012-1-7,69,64,59,60,57,53,100,85,59,30.20,30.15,30.12,10,9,4,7,2,,0.00,3,,222
2012-1-8,75,67,59,60,56,49,100,75,46,30.25,30.19,30.16,10,8,5,8,1,,0.00,0,,350
2012-1-9,75,68,60,61,59,57,93,78,53,30.23,30.15,30.09,10,10,10,6,2,,0.00,0,,111
2012-1-10,75,68,61,62,60,58,97,82,55,30.11,30.03,29.95,10,10,9,14,3,18,0.00,1,,193
2012-1-11,70,66,62,66,63,60,97,88,73,29.94,29.84,29.80,10,9,2,22,10,32,0.20,4,Rain,225
2012-1-12,73,67,61,63,61,58,97,81,61,29.97,29.91,29.85,10,10,9,15,7,21,0.00,1,,251
2012-1-13,66,59,52,60,46,41,81,67,56,30.25,30.13,29.98,10,10,10,14,10,23,0.00,1,,358
2012-1-14,55,50,46,47,36,29,77,56,37,30.38,30.32,30.23,10,10,10,18,8,,0.00,0,,20
2012-1-15,64,57,50,50,44,36,86,64,34,30.46,30.40,30.35,10,10,10,13,4,,0.00,0,,22
2012-1-16,69,62,55,57,51,45,80,70,61,30.46,30.39,30.32,10,10,10,16,13,,0.00,0,,90
2012-1-17,72,64,57,58,55,54,87,72,53,30.33,30.24,30.16,10,10,10,12,7,21,0.00,0,,205
2012-1-18,71,65,59,64,61,57,100,90,68,30.15,30.08,30.03,10,8,1,13,4,,0.35,5,Rain-Thunderstorm,230
2012-1-19,69,62,54,58,49,36,93,70,32,30.20,30.11,30.05,10,10,10,13,6,,0.00,1,,29
2012-1-20,73,65,57,60,54,48,90,71,46,30.19,30.14,30.11,10,10,10,12,7,,0.00,0,,159
2012-1-21,73,66,59,61,58,56,93,78,55,30.15,30.10,30.05,10,10,10,13,8,,0.00,0,,197
2012-1-22,75,68,60,64,61,58,96,85,55,30.14,30.10,30.07,10,10,10,6,2,,0.00,0,,147
2012-1-23,75,69,63,65,63,59,97,85,69,30.16,30.10,30.06,10,10,9,13,3,,0.00,0,,186
2012-1-24,75,70,64,65,63,62,97,84,62,30.18,30.13,30.10,10,9,7,7,2,53,0.00,1,,31
2012-1-25,81,72,64,67,64,60,100,84,49,30.17,30.12,30.07,10,10,10,8,4,,0.00,1,,129
2012-1-26,78,71,64,67,65,64,97,84,62,30.10,30.02,29.96,10,10,10,22,9,26,0.00,1,,184
2012-1-27,71,66,61,68,64,55,100,88,70,30.09,29.98,29.93,10,8,1,15,10,23,0.62,7,Rain,260
2012-1-28,66,62,57,56,55,51,93,76,57,30.20,30.13,30.08,10,10,10,10,3,18,0.00,2,,353
2012-1-29,71,64,57,56,52,46,90,69,41,30.31,30.25,30.19,10,10,10,17,8,,0.00,0,,23
2012-1-30,69,63,57,57,52,46,81,67,52,30.39,30.32,30.27,10,10,10,23,16,25,0.00,0,,71
2012-1-31,72,66,60,61,57,54,83,75,59,30.35,30.29,30.23,10,10,10,17,12,,0.00,0,,82